Location: Stockholm
(59.3330°N, 18.0500°E)
Time: 03:13:57
(UTC+02:00)

NOAA 18 - Pass Details

Date: 09 April 2023
Orbit: 838 x 860 km, 98.9° (Epoch: 31 May)

Event Time Altitude Azimuth Distance (km) Brightness Sun altitude
Exits shadow 21:27:30 16° 133° (SE) 2,101 6.6 -11.9°
Maximum altitude 21:31:49 53° 61° (ENE) 1,051 5.6 -12.3°
Drops below altitude 10° 21:37:13 10° 347° (NNW) 2,507 8.5 -12.9°
Sets 21:39:38 0° 343° (NNW) 3,445 9.5 -13.1°
